Regional Weather Roundup
Issued by NWS

Home | Current Version | Previous Version | Graphics & Text | Print | Product List | Glossary Off
Versions: 1 2 3 4 5 6 7 8 9 10 11 12 13 14 15 16 17 18 19 20 21 22 23 24 25 26 27 28 29 30 31 32 33 34 35 36 37 38 39 40 41 42 43 44 45 46 47 48 49 50

000
ASUS43 KIND 262309
RWRIN

WEATHER ROUNDUP FOR INDIANA
NATIONAL WEATHER SERVICE INDIANAPOLIS IN
700 PM EDT THU APR 26 2018

NOTE: "FAIR" INDICATES FEW OR NO CLOUDS BELOW 12,000 FEET WITH NO
SIGNIFICANT WEATHER AND/OR OBSTRUCTIONS TO VISIBILITY.

* - STATION DOES NOT REPORT WEATHER SUCH AS PRECIPITATION OR FOG.

+ - STATION NOT QUALITY CONTROLLED BY THE NATIONAL WEATHER SERVICE.
    USE DATA WITH CAUTION...ESPECIALLY DEWPOINT AND RELATIVE
    HUMIDITY OBSERVATIONS.

INZ001>003-010>013-019-020-270000-
NORTHWEST INDIANA

CITY           SKY/WX    TMP DP  RH WIND       PRES   REMARKS
GARY /AIRPORT/ PTSUNNY   63  21  20 E6        29.86F
KNOX *+        FAIR      61  32  33 N13       29.87R
LA PORTE +     FAIR      59  24  26 N7        29.88F
MICHIGAN CITY+ FAIR      59  28  31 NE3       29.87F
MONTICELLO +   FAIR      65  23  19 N5        29.85F
RENSSELAER +   FAIR      64  -8   5 NW5       29.87R
VALPARAISO     FAIR      62  21  20 N5        29.87F

$$

LMZ046-743>745-270000-
SOUTHERN LAKE MICHIGAN

STATION/POSITION TIME  TEMP    WIND        PRES    WAVE
                       AIR SEA DIR/SP/G            HT
                 (UTC) (F)     (DEG/KT/KT) (MB)    (FT)
BURNS HARBOR     2240   52      70/  8/  9 1011.9F
MICHIGAN CITY    2240   53      50/  8/  8   N/A

$$

INZ004-005-014>016-021>024-270000-
NORTH CENTRAL INDIANA

CITY           SKY/WX    TMP DP  RH WIND       PRES   REMARKS
ELKHART        FAIR      63  34  34 NW8       29.86S
GOSHEN         FAIR      62  33  33 NW5       29.85F
LOGANSPORT +   FAIR      63  32  31 NW3       29.86S
PERU/GRISSOM   FAIR      64  33  32 NW5       29.85S
ROCHESTER +    FAIR      64  30  27 NW5       29.85F
SOUTH BEND     FAIR      57  24  28 N9        29.88F
WARSAW +       FAIR      63  34  34 CALM      29.85F

$$

INZ006>009-017-018-025>027-270000-
NORTHEAST INDIANA

CITY           SKY/WX    TMP DP  RH WIND       PRES   REMARKS
ANGOLA *+      FAIR      61  34  36 NW6       29.85S
AUBURN +       FAIR      63  36  36 W3        29.85F
FORT WAYNE     FAIR      65  39  38 N6        29.86S
HUNTINGTON +   FAIR      63  34  34 N3        29.85S
KENDALLVILLE + FAIR      61  28  28 N5        29.86S

$$

INZ028-029-035-036-043>045-051>053-270000-
WEST CENTRAL INDIANA

CITY           SKY/WX    TMP DP  RH WIND       PRES   REMARKS
CRAWFORDSVL +  FAIR      62  32  32 NW9       29.87R
GREENCASTLE +  FAIR      63  30  29 N5        29.87S
LAFAYETTE      FAIR      65  31  28 NE3       29.85F
TERRE HAUTE    FAIR      65  30  27 N9        29.87R

$$

INZ030>032-037>040-046>048-054>057-064-065-270000-
CENTRAL INDIANA

CITY           SKY/WX    TMP DP  RH WIND       PRES   REMARKS
COLUMBUS       MOSUNNY   64  21  19 N62       29.86S
FRANKFORT +    FAIR      66  33  29 NW5       29.89R
GREENWOOD *+   FAIR      64  32  30 W5        29.86S
INDIANAPOLIS   FAIR      65  32  29 W8        29.85S
-EAGLE CREEK   FAIR      65  32  29 NW9       29.85S
KOKOMO +       FAIR      64  36  35 NW8       29.86S
MARION +       FAIR      63  35  35 CALM      29.86R
MT COMFORT *+  FAIR      63  41  45 N6        29.87R
SHELBYVILLE    FAIR      65  32  29 NW5       29.85S
ZIONSVILLE +   FAIR      62  32  32 NW6       29.87R

$$

INZ033-034-041-042-049-050-058-059-270000-
EAST CENTRAL INDIANA

CITY           SKY/WX    TMP DP  RH WIND       PRES   REMARKS
MUNCIE         FAIR      66  33  29 CALM      29.85R
RICHMOND +     FAIR      63  34  34 SW5       29.85S

$$

INZ060-061-067>069-081>083-085>088-270000-
SOUTHWEST INDIANA

CITY           SKY/WX    TMP DP  RH WIND       PRES   REMARKS
EVANSVILLE     FAIR      67  36  31 N5        29.87S
HUNTINGBURG +  FAIR      65  32  29 N12       29.86F
WASHINGTON +   FAIR      64  27  24 NW8       29.87R

$$

INZ062-063-066-070>080-084-089>092-270000-
SOUTH CENTRAL AND SOUTHEAST INDIANA

CITY           SKY/WX    TMP DP  RH WIND       PRES   REMARKS
BEDFORD +      FAIR      66  14  13 NW5       29.84R
BLOOMINGTON    FAIR      65  31  28 N7        29.86R
FRENCH LICK *+ FAIR      64  12  13 NW8       29.86S
MADISON *+     FAIR      64  25  22 CALM      29.87R
NORTH VERNON + FAIR      63  30  29 NW5       29.86S
SEYMOUR +      FAIR      64  34  32 N5        29.85S

$$





USA.gov is the U.S. government's official web portal to all federal, state and local government web resources and services.